Theta_e
331 331 332 332 329 329 335 339 338 340 344 344 342 340 343 349 338 329 342 355 347 345 353 353 350 351 351 353 355 353 354 356 354 352 350 349 349 349 349 348 348 349 350 352 352 349 349 349 350 352 352 352 354 355 355 355 354 354 355 355 355 357 359 359 359 359 358 358 358 357 356 356 356 357 356 355 356 355 353 351 351 352 353 355 358 359 358
336 334 333 335 332 334 338 340 341 342 346 348 348 347 351 352 345 340 349 357 352 348 350 350 347 346 348 350 351 351 353 356 354 353 352 350 350 349 349 348 348 347 349 352 351 349 349 349 349 350 350 350 351 352 354 355 355 355 355 354 354 355 357 359 359 360 359 358 358 358 357 357 357 358 357 357 356 354 353 354 354 354 356 358 359 358 357
336 336 334 333 335 340 341 340 343 344 343 347 350 351 354 353 350 350 352 353 352 349 348 348 347 346 348 348 348 349 353 354 354 353 351 350 350 349 348 348 347 345 347 350 350 350 350 349 349 349 349 349 349 349 351 353 354 355 354 354 354 354 355 357 357 357 356 356 357 359 359 359 358 357 357 356 355 354 354 355 355 355 357 358 358 358 357
333 335 332 331 336 343 344 342 345 346 343 344 347 350 352 348 346 350 350 348 350 352 350 348 347 348 347 346 346 348 348 351 353 352 351 350 350 349 349 347 345 343 345 347 349 349 349 348 349 349 349 349 350 349 350 352 353 354 354 354 354 353 354 355 356 355 353 353 356 359 360 359 358 358 357 355 355 355 354 355 355 355 357 358 358 359 358
335 337 333 330 329 334 341 344 345 346 346 347 348 350 351 347 347 351 349 346 347 350 349 347 347 347 346 345 345 344 344 348 352 352 350 349 349 349 349 347 345 344 344 346 347 348 349 349 347 347 348 349 350 350 351 352 353 353 354 353 351 352 354 355 355 355 353 354 355 355 357 358 358 358 358 356 356 355 355 356 358 358 358 359 359 359 359
334 339 337 333 329 332 341 344 344 347 348 350 353 353 349 348 350 351 349 347 347 347 347 346 346 346 345 343 342 344 345 348 351 350 349 347 347 349 350 346 344 344 344 344 344 346 349 350 348 347 347 347 350 350 351 353 354 353 353 353 352 353 354 352 352 355 356 356 354 352 355 357 357 358 358 357 356 356 356 359 359 358 358 359 359 358 358
335 342 342 333 331 339 346 345 344 348 349 350 355 354 349 347 350 350 348 346 346 345 345 345 345 345 343 340 342 346 346 346 346 345 347 347 346 349 350 345 343 343 344 344 344 346 349 350 349 348 346 347 349 350 351 352 354 353 353 353 353 354 353 349 351 356 356 355 354 354 356 357 358 358 358 357 357 357 358 359 360 358 358 359 359 358 357
337 338 334 330 333 343 351 349 348 351 351 350 349 348 349 347 346 346 345 345 346 346 345 345 345 344 342 343 349 350 344 343 343 342 344 346 346 349 349 345 342 343 344 344 346 348 348 348 349 349 348 348 347 348 350 351 351 352 352 353 355 355 353 350 351 355 356 355 355 356 356 356 357 358 358 357 357 358 358 359 359 359 358 358 357 355 354
334 331 329 332 338 344 351 353 351 350 350 350 345 343 347 346 342 344 343 344 347 347 345 346 346 344 343 346 354 353 344 341 342 341 341 343 345 347 345 342 341 342 343 346 347 348 348 346 347 349 349 349 348 349 350 350 349 350 351 353 356 356 354 351 350 353 355 355 355 355 355 355 355 356 357 357 357 357 358 357 357 358 357 357 356 353 352
331 330 331 334 336 341 350 355 354 352 352 351 345 342 345 346 343 344 343 344 347 346 345 347 347 346 345 346 348 346 341 340 341 340 340 339 341 343 342 341 341 341 342 344 345 347 348 346 345 347 348 349 349 349 350 351 349 349 350 353 355 354 352 351 351 352 354 354 355 355 354 353 354 355 355 355 356 357 357 356 356 356 356 356 355 353 353
330 330 330 334 338 344 352 355 355 355 354 351 343 339 343 345 343 343 344 344 345 347 347 348 347 346 348 346 344 341 339 340 341 341 341 339 339 341 340 340 342 342 343 343 343 346 348 345 345 346 346 346 348 350 352 351 349 348 349 352 352 352 351 350 351 352 353 354 355 354 353 352 351 352 353 355 356 355 355 355 354 354 354 354 353 353 352
336 333 330 337 344 348 352 356 356 354 351 346 338 336 343 345 342 343 344 343 345 347 347 347 346 346 347 346 343 340 340 340 339 340 341 340 339 339 340 340 342 343 342 343 344 345 346 347 348 347 345 345 347 348 350 350 349 349 349 351 351 349 350 351 352 353 354 354 354 353 352 350 350 350 351 353 353 354 353 353 352 351 350 350 350 350 350
340 335 331 338 348 350 347 348 351 347 344 342 339 340 345 346 344 346 345 343 344 346 346 347 347 347 347 344 342 342 341 342 341 339 339 340 339 339 339 340 342 344 343 343 344 345 346 347 348 347 346 345 346 347 347 348 349 350 349 350 351 350 350 351 352 354 355 355 353 352 351 351 351 350 350 350 351 352 352 351 350 349 348 348 347 346 346
336 337 336 336 343 349 344 341 345 342 338 342 346 348 348 345 344 347 345 343 344 345 345 347 347 346 345 344 342 342 342 344 344 341 339 340 339 338 338 339 342 345 344 343 344 345 344 343 344 346 345 343 344 346 346 346 348 351 351 350 351 350 349 350 351 352 354 353 352 351 351 352 352 351 350 349 350 350 348 346 346 347 347 348 346 343 342
339 341 339 334 337 345 343 339 344 343 340 348 354 350 348 346 343 344 343 342 343 344 344 347 346 345 345 344 342 342 342 344 344 341 340 341 339 338 338 338 341 344 344 343 344 343 343 343 345 346 345 343 343 344 345 345 347 350 352 350 349 349 348 349 350 351 352 352 352 351 351 351 352 350 350 350 350 348 344 342 343 345 346 344 342 340 340
339 338 341 343 347 351 345 341 348 351 350 355 354 347 348 350 345 343 343 342 342 343 344 344 345 344 344 342 342 341 340 342 344 342 341 341 339 338 338 338 340 343 344 343 343 342 343 345 345 345 344 344 343 343 345 346 347 350 352 350 348 348 348 349 349 350 350 351 351 351 351 352 350 350 350 350 349 346 343 342 343 344 343 340 339 339 339
338 344 355 358 356 353 346 345 355 359 355 355 351 345 346 348 345 343 342 340 341 342 341 341 343 343 343 342 340 340 339 342 345 344 341 340 338 338 339 339 340 342 343 343 343 342 342 344 344 344 343 343 344 344 345 346 349 350 351 350 348 346 347 347 348 349 350 350 351 351 351 351 350 350 350 349 346 344 343 343 344 344 341 339 339 339 338
338 345 350 349 345 345 344 346 352 353 350 351 349 345 345 345 343 341 339 339 340 339 339 342 343 343 343 342 341 340 340 344 346 342 339 339 339 339 341 342 342 342 342 342 342 342 342 342 343 344 343 343 346 347 346 347 350 350 349 349 348 346 346 348 349 350 351 350 350 350 350 350 351 350 349 347 344 343 343 342 344 345 341 339 339 338 337
339 342 345 345 342 342 346 348 347 346 347 349 347 344 343 343 341 339 338 338 340 340 341 343 344 343 342 341 341 341 341 343 344 341 338 339 341 341 343 344 343 342 341 341 341 341 341 342 343 343 343 344 347 349 348 348 350 350 348 349 348 348 347 348 349 351 350 349 349 349 350 350 349 348 346 344 342 343 342 343 345 346 342 340 339 338 337
344 347 351 353 349 346 346 346 345 345 347 347 346 343 341 340 339 339 338 337 340 343 343 342 342 343 341 340 339 339 339 341 341 339 337 339 342 343 343 343 342 341 340 341 342 342 342 342 343 343 343 346 348 349 348 348 348 348 348 348 349 349 347 347 347 349 349 348 347 348 349 349 347 345 343 342 342 344 343 344 347 346 343 340 339 338 339
346 344 344 345 345 347 347 345 343 343 343 341 341 342 342 341 342 342 340 337 336 338 340 343 342 340 339 340 339 339 339 340 339 338 338 340 342 342 342 341 340 339 341 341 341 341 341 342 343 343 344 346 348 348 347 347 346 346 347 348 348 347 346 345 345 345 345 345 346 347 347 347 345 344 344 344 345 345 345 346 348 347 344 340 338 338 339
345 344 343 341 344 349 350 345 341 339 338 337 338 341 343 343 342 342 340 337 334 333 334 337 340 340 340 340 340 340 341 340 337 337 339 340 341 341 341 341 338 339 341 341 340 340 341 341 343 344 343 346 349 349 348 348 345 344 346 347 346 345 344 343 343 342 341 342 344 346 346 344 342 341 341 343 345 345 345 347 347 347 344 340 337 339 340
346 344 344 345 346 351 350 345 341 339 339 338 338 337 338 338 338 338 338 337 337 338 335 332 335 340 341 337 336 340 340 337 335 338 339 339 340 341 341 339 338 339 341 341 341 342 341 342 343 342 343 346 350 349 349 347 345 345 346 345 344 343 341 341 342 342 340 340 342 343 342 342 341 339 338 339 342 345 347 347 347 347 345 340 339 341 343
344 341 345 345 343 345 346 345 343 340 337 336 336 334 334 336 336 336 338 338 338 340 340 335 331 334 335 332 334 339 339 336 336 338 339 339 341 342 341 339 337 339 340 340 340 341 342 343 343 342 342 346 349 349 349 347 346 346 345 344 343 341 340 339 340 339 338 338 339 339 338 338 339 339 338 336 336 339 344 347 347 347 346 343 343 344 343
343 342 346 344 341 344 347 344 343 341 336 332 334 333 332 335 335 333 336 339 334 334 338 337 333 332 333 332 334 337 338 337 337 339 339 341 341 341 339 337 337 339 340 339 340 342 342 343 342 341 341 344 348 348 348 346 346 346 346 344 342 341 340 339 337 337 337 337 337 338 338 338 338 339 339 337 332 331 335 340 344 345 345 345 344 341 338
343 342 346 345 344 347 346 339 341 343 335 329 332 333 331 332 334 333 332 334 332 332 334 334 333 334 335 335 336 337 338 338 339 340 340 340 341 341 339 337 339 341 341 340 341 343 343 343 343 342 341 342 346 348 348 346 346 346 346 344 342 340 340 338 337 336 336 335 335 336 336 337 338 338 338 337 335 332 330 332 333 335 337 338 338 335 332
343 342 342 343 345 348 346 338 338 339 333 329 332 334 330 330 332 332 332 333 333 334 335 334 335 337 337 338 338 339 339 340 340 341 341 340 342 342 342 340 341 342 342 342 343 344 345 345 344 343 342 343 344 346 347 346 346 346 346 343 341 340 340 338 337 337 336 335 335 335 334 335 335 336 335 335 335 333 330 328 327 326 327 329 330 330 328
344 341 338 336 338 341 340 336 332 332 332 330 331 332 332 332 333 334 336 338 336 334 334 335 336 337 337 338 339 339 339 340 340 340 341 341 340 341 342 341 341 341 342 344 344 345 345 344 343 343 343 343 344 345 346 346 346 346 345 342 341 341 340 338 337 337 336 335 335 334 333 332 332 333 333 332 330 329 327 326 325 322 322 322 323 323 322
342 341 339 337 336 336 334 334 335 337 336 334 332 332 333 335 336 338 339 339 337 336 336 335 334 335 337 338 337 337 338 339 339 340 340 340 340 342 342 340 340 341 343 345 345 344 344 343 342 342 342 342 343 344 345 346 346 346 345 343 342 342 340 338 337 337 336 335 334 332 332 331 330 329 329 327 326 324 322 320 319 317 315 316 318 318 318
342 342 341 341 340 338 337 338 340 340 339 337 336 335 334 335 338 339 339 337 336 337 337 335 333 334 336 336 336 336 337 338 339 340 340 340 341 342 342 341 340 341 343 344 344 343 343 342 342 342 341 342 343 343 344 346 346 346 345 345 343 342 339 338 337 337 336 334 333 331 331 330 329 327 324 322 320 319 316 314 313 313 315 316 317 317 318
342 343 343 343 342 340 339 340 341 340 339 338 338 338 338 337 338 338 338 338 337 337 336 334 333 334 335 335 336 336 337 338 339 339 339 340 341 341 341 341 341 341 342 342 343 343 343 343 343 342 341 342 343 343 344 346 346 346 345 345 344 342 340 339 338 337 336 334 333 332 331 329 326 324 322 319 317 315 313 312 313 314 316 317 316 317 319
342 344 344 344 343 341 341 341 340 339 338 337 338 338 338 337 337 338 338 338 336 336 335 334 334 335 336 335 336 336 336 337 337 338 338 339 339 340 341 341 341 342 342 342 342 342 342 342 343 343 342 342 343 344 345 345 346 346 346 345 344 342 340 339 338 337 336 335 334 332 330 327 325 323 320 318 317 315 314 314 314 316 316 317 317 319 320
340 342 341 341 341 340 341 340 338 337 338 337 336 336 334 334 335 336 336 335 335 335 334 334 335 335 336 336 335 336 336 336 336 337 338 337 337 339 341 341 341 341 341 341 342 342 342 342 342 342 342 341 341 343 344 345 345 346 346 345 344 343 341 340 339 338 337 336 335 332 329 326 324 322 321 319 318 317 317 318 318 318 318 318 319 320 321
336 338 338 338 338 337 338 338 337 337 338 337 335 333 332 332 333 334 334 335 335 334 333 334 335 335 336 336 336 336 335 336 336 337 336 335 335 337 338 340 341 341 341 341 341 341 342 343 342 342 341 340 340 342 343 343 343 345 346 346 344 343 342 341 340 339 338 337 334 331 328 326 324 322 321 321 321 320 321 321 321 320 321 321 322 322 323
333 335 336 335 334 334 335 336 336 337 338 337 336 334 332 333 334 333 334 335 334 333 334 334 334 335 335 336 335 334 334 335 335 335 334 334 333 334 335 338 340 340 340 340 339 340 342 343 342 342 342 341 341 343 343 343 342 342 343 344 343 343 342 342 340 339 338 336 333 330 328 326 324 323 323 324 324 324 324 324 323 322 322 322 322 322 323
333 336 337 335 333 333 333 333 334 335 335 335 335 334 333 333 334 333 334 334 333 333 333 333 333 334 335 334 334 333 333 333 333 332 332 331 331 331 333 334 335 335 336 336 337 338 340 341 341 341 341 342 343 344 344 344 342 340 340 342 342 342 341 340 339 338 337 335 332 329 327 326 325 325 326 327 326 326 326 325 324 324 322 320 320 322 322
333 334 335 334 332 332 333 333 333 333 333 333 333 332 332 332 332 332 333 332 330 331 331 331 331 333 333 332 332 332 332 331 331 330 330 330 330 330 330 331 331 332 332 332 333 336 338 339 339 339 340 341 342 343 344 344 342 339 339 340 340 339 339 338 337 336 335 333 331 329 329 329 328 328 327 326 326 325 325 325 323 322 319 319 320 321 320
333 333 334 334 333 333 333 332 332 331 331 331 331 330 329 329 329 329 329 329 328 329 330 329 330 331 331 331 331 331 331 330 329 329 329 329 329 329 329 329 329 330 330 330 331 334 336 337 338 338 339 339 339 340 342 343 341 339 339 339 338 337 337 337 335 334 333 332 331 331 330 330 329 327 325 323 322 322 322 322 321 320 318 318 319 319 317
333 333 333 333 332 332 332 331 329 329 328 328 328 327 327 327 327 327 327 327 327 328 329 329 330 330 330 330 329 329 328 328 328 328 328 328 328 328 328 327 328 328 328 329 330 332 333 335 336 337 337 338 338 339 340 340 339 338 338 337 337 336 335 334 333 333 332 332 331 330 329 327 325 323 320 318 317 317 318 319 320 319 318 318 317 317 317
333 332 332 332 332 331 331 329 328 327 326 326 326 326 326 326 326 326 326 327 327 328 329 330 329 329 328 327 327 326 326 327 327 327 327 327 327 326 326 325 326 326 327 327 328 329 330 332 333 332 333 334 335 336 336 336 336 336 335 335 334 333 332 332 331 331 331 330 329 326 324 322 320 318 316 315 315 316 318 319 320 319 319 319 317 317 316
333 332 331 331 330 329 329 327 326 326 325 325 325 325 325 325 325 326 326 327 328 328 328 327 326 326 325 325 325 325 325 325 325 326 326 326 325 325 325 324 324 324 325 326 326 327 328 328 328 328 328 329 330 331 332 332 331 330 330 329 329 327 327 327 327 326 326 326 325 323 322 321 319 318 317 317 318 319 320 319 318 318 318 317 317 317 316
332 331 330 329 328 328 327 326 326 325 324 324 324 325 325 325 325 325 326 326 326 326 325 325 325 325 324 324 324 324 324 324 324 324 325 325 324 324 324 323 322 322 323 324 324 325 325 325 325 325 326 326 326 327 328 327 327 326 325 325 324 324 324 323 323 324 324 323 323 323 322 322 321 321 320 320 320 320 320 319 317 316 315 315 315 315 315
330 330 329 328 327 327 327 326 325 324 323 324 324 325 325 325 324 324 324 324 324 323 323 323 323 323 323 323 323 323 323 324 324 323 323 323 323 323 322 322 321 321 321 322 322 322 323 323 323 323 323 324 324 324 324 324 324 324 323 323 323 323 323 322 322 322 322 321 321 321 321 321 320 320 320 320 320 319 318 317 316 315 315 315 314 315 315
330 330 329 328 327 327 326 325 324 323 323 323 324 324 324 324 323 323 323 322 322 321 321 321 321 322 322 322 323 322 322 323 323 322 322 322 321 321 321 320 320 320 320 321 321 321 322 322 322 323 323 323 323 323 322 322 322 322 322 322 322 322 322 321 321 321 321 320 320 320 320 320 319 319 319 318 318 317 316 316 315 315 315 315 315 315 315
331 329 328 328 327 327 327 326 325 323 322 323 323 323 322 322 322 321 321 320 320 319 319 319 320 320 320 321 321 321 321 322 322 322 322 322 322 321 320 318 317 317 318 319 320 320 320 320 321 322 322 322 322 322 321 321 321 321 321 321 321 321 321 320 320 319 319 319 319 319 319 318 318 318 317 317 316 315 315 315 315 315 315 315 316 315 315
330 329 329 328 327 327 327 327 324 323 322 322 321 321 321 321 320 320 319 319 318 318 318 318 318 319 319 320 320 320 320 321 321 321 321 321 321 320 317 315 314 314 316 317 318 318 318 319 319 320 320 320 320 320 320 320 320 320 320 320 319 319 319 319 319 318 318 318 318 317 317 317 316 316 316 316 316 315 315 315 315 315 316 315 316 315 315
329 329 328 327 327 327 326 324 322 321 321 320 320 320 321 320 319 319 318 318 317 317 317 317 317 318 319 319 319 319 319 319 319 319 319 319 318 317 315 314 314 314 315 316 316 316 317 317 317 318 318 318 318 317 318 318 318 318 318 318 318 319 318 318 318 318 318 317 317 317 317 317 316 317 316 316 316 316 316 316 315 316 315 315 315 315 315
329 328 328 327 327 326 325 323 322 321 320 320 319 320 319 319 318 317 317 317 316 316 315 316 316 317 318 319 319 319 319 319 318 318 318 317 316 315 315 315 315 315 316 316 316 316 316 316 316 316 317 317 317 316 316 317 317 317 316 317 317 317 317 316 316 316 317 317 317 317 317 317 317 317 316 316 316 316 315 315 315 315 315 315 315 315 315
329 329 328 327 326 325 325 323 322 321 320 319 319 319 318 317 316 315 315 314 314 313 314 314 314 316 317 318 318 318 318 318 317 317 316 316 316 316 316 316 316 317 316 317 317 317 317 317 316 316 316 316 316 316 316 315 316 316 316 316 316 316 315 315 315 316 316 316 316 317 317 317 317 316 316 316 315 315 314 315 315 315 315 315 316 315 316
329 329 328 327 326 325 325 324 322 321 320 319 319 318 317 316 316 317 317 315 313 312 311 311 313 315 316 317 317 317 316 316 316 316 316 316 316 316 317 317 318 317 318 318 318 317 316 316 317 316 316 316 316 316 316 316 316 317 317 316 316 316 316 316 316 316 317 316 316 316 316 316 316 316 316 315 315 314 314 315 315 316 315 316 316 316 316
329 328 328 327 327 325 325 324 323 321 319 318 317 316 315 314 315 316 317 317 317 315 312 309 310 314 315 315 315 315 315 315 315 315 316 316 316 316 316 316 317 317 317 317 316 316 315 314 315 316 316 316 316 316 316 317 317 317 317 317 317 316 317 317 317 317 317 316 316 316 316 315 315 315 315 315 315 315 316 316 316 316 316 316 316 316 316
328 327 327 327 327 326 325 324 324 324 322 321 319 316 314 312 312 314 316 317 317 317 314 311 311 312 314 314 313 313 313 314 314 315 315 315 316 315 315 316 316 315 315 315 316 315 315 314 314 315 316 315 316 316 317 317 317 317 317 317 317 316 316 316 316 317 317 317 316 316 315 316 315 316 316 316 316 316 316 316 316 316 316 316 316 315 315
Wind_Speed
6 5 5 7 4 2 5 7 7 8 9 10 9 4 2 4 4 3 5 1 3 3 4 4 5 5 4 3 4 5 5 4 5 6 7 8 9 10 10 10 9 5 5 6 8 13 16 9 2 6 8 7 8 11 13 15 19 24 26 28 30 31 32 33 33 33 31 27 25 23 19 17 17 16 16 17 16 17 17 15 13 16 20 21 19 16 14
5 5 6 7 4 5 7 7 7 7 8 8 7 4 3 5 4 4 3 4 3 2 3 4 5 4 4 4 4 5 6 5 5 6 7 8 9 10 11 11 11 8 5 5 7 11 16 13 7 8 10 10 10 9 8 10 16 20 20 22 26 28 30 32 32 29 24 20 19 17 16 17 18 19 20 20 18 18 18 16 16 19 20 20 18 16 15
5 6 6 6 6 8 8 7 7 7 7 6 5 3 3 3 1 3 3 4 1 3 4 4 5 4 5 5 6 6 6 6 5 6 7 8 9 11 11 12 12 11 10 7 6 9 14 17 13 11 11 11 12 11 9 9 14 18 18 20 25 27 25 27 26 20 15 13 13 15 17 18 19 21 21 20 19 20 20 18 19 20 21 21 19 16 15
4 5 6 5 6 10 9 7 6 5 4 3 2 2 2 1 1 4 5 2 3 4 4 4 5 5 6 6 7 6 6 6 5 6 7 8 9 10 11 12 12 13 13 11 10 10 12 17 16 12 12 13 15 15 13 12 14 16 16 17 20 22 18 17 15 11 14 13 12 14 17 20 21 21 21 19 19 19 20 21 22 22 22 21 19 17 15
3 6 6 5 3 5 3 3 3 3 3 3 2 2 3 1 1 1 1 2 4 4 4 5 5 5 6 6 6 6 7 6 5 5 7 8 8 9 10 11 11 11 13 13 15 16 13 16 17 13 10 9 9 11 13 13 15 19 19 13 10 14 14 7 11 17 17 15 14 14 19 22 23 22 21 20 20 20 22 23 24 24 22 20 18 17 15
3 7 5 4 3 2 3 3 1 2 2 1 1 1 2 2 1 1 2 2 3 3 4 4 5 6 6 6 7 6 5 4 4 6 6 7 8 7 9 10 9 9 12 16 19 21 17 13 13 12 10 10 9 7 9 14 18 22 23 19 15 10 4 7 16 14 10 13 15 19 21 21 22 23 23 22 21 21 22 23 23 23 22 19 17 16 15
2 3 4 4 2 4 5 3 2 4 4 3 3 4 4 2 1 2 2 2 4 4 5 5 4 6 7 8 7 5 3 3 4 6 7 7 7 8 9 10 9 10 14 18 21 22 20 16 12 10 9 10 12 10 7 12 18 20 18 17 18 17 14 12 12 11 13 17 19 21 21 21 23 25 24 22 20 20 21 21 22 21 20 19 18 16 16
0 2 3 0 3 3 2 3 2 3 3 3 2 2 5 3 2 2 1 3 5 4 5 5 4 6 7 7 5 3 2 4 5 6 7 7 7 7 8 9 10 13 17 19 21 21 19 17 14 11 12 12 11 12 10 9 12 12 11 12 15 18 19 18 16 16 18 19 20 21 22 22 24 25 24 21 20 20 20 21 20 20 20 20 19 18 17
1 1 0 0 1 2 3 3 2 1 1 0 2 1 4 3 3 2 1 3 5 5 5 6 6 5 5 5 4 4 4 5 6 6 6 7 8 9 9 11 13 17 20 21 21 20 19 17 14 13 16 15 11 11 12 11 10 9 9 12 16 18 20 21 19 18 19 19 18 20 21 21 22 24 24 23 22 22 21 21 21 21 22 21 19 18 17
2 2 1 2 0 3 4 4 5 3 4 5 4 2 4 4 3 2 0 1 5 5 5 6 6 4 4 4 5 6 6 7 7 6 7 8 10 12 14 15 15 17 20 21 20 19 19 18 15 15 16 15 12 8 7 10 12 10 9 10 12 12 13 17 19 19 19 18 17 18 18 18 19 23 25 24 23 23 23 23 23 23 23 22 20 18 17
1 3 1 2 3 3 5 6 6 4 5 4 2 2 3 4 4 3 1 2 5 5 5 6 4 4 4 5 5 6 7 8 7 6 7 8 10 15 20 19 13 13 18 21 19 16 17 18 18 17 16 16 13 7 2 6 11 12 9 7 5 4 6 10 15 18 19 18 17 18 16 12 10 16 23 25 24 24 24 23 23 23 23 22 21 19 18
1 2 2 2 2 3 5 6 5 5 3 2 5 3 5 5 4 3 2 3 6 5 5 4 3 2 3 5 6 8 8 8 8 8 8 7 6 11 22 23 14 10 14 19 18 16 16 18 19 19 18 17 15 10 4 3 8 11 8 4 5 7 8 10 13 15 16 18 18 17 16 13 9 9 17 23 24 23 23 22 22 22 21 20 19 18 17
1 3 2 1 2 4 4 4 4 3 1 5 3 3 5 4 4 5 3 4 6 5 4 4 3 4 5 6 8 9 8 8 9 9 11 9 5 7 17 23 18 12 12 14 16 16 16 16 19 21 21 19 18 14 9 5 6 7 6 6 6 7 9 11 13 15 16 17 16 12 14 18 16 13 14 18 21 22 22 22 22 23 22 19 16 15 16
0 2 2 0 3 4 4 3 3 1 2 1 3 5 4 3 4 5 4 5 6 5 5 5 5 6 7 7 8 9 8 8 8 9 10 9 7 9 14 18 18 14 13 15 17 18 18 18 18 19 18 18 19 18 13 8 5 2 6 11 12 11 10 10 12 15 15 16 15 13 13 16 17 15 13 14 16 17 18 21 23 22 21 19 18 18 19
1 2 2 1 3 4 5 3 2 2 1 4 4 2 2 3 4 4 4 5 5 5 5 6 6 7 8 8 8 8 8 8 8 9 9 6 6 12 15 17 17 14 12 12 13 14 17 16 13 10 8 8 10 13 12 8 4 3 7 12 13 12 12 12 12 14 15 16 16 16 17 17 16 16 14 14 16 17 18 22 22 20 19 20 21 21 22
2 1 1 3 4 5 4 4 2 3 4 5 4 3 3 4 4 3 4 5 6 6 6 7 7 7 7 7 8 8 8 9 7 7 9 6 7 12 16 17 18 18 14 9 5 6 10 8 3 1 4 3 4 3 6 6 7 7 10 13 15 17 17 15 15 16 18 19 20 21 22 20 18 19 18 19 20 20 21 24 24 20 20 22 24 23 23
3 4 5 5 4 3 3 3 4 5 5 4 5 5 4 4 4 4 4 5 7 6 6 7 6 6 6 7 8 7 7 8 7 7 9 7 7 11 16 14 15 19 17 11 6 6 9 8 5 4 5 4 4 6 8 9 9 10 11 14 16 18 19 18 18 20 20 21 24 25 25 23 23 23 24 24 22 22 24 27 27 23 23 25 26 25 24
1 1 2 2 1 3 3 3 4 5 5 5 4 4 4 5 5 4 4 5 7 7 6 6 5 5 6 7 7 7 6 7 7 8 10 8 5 8 12 10 12 17 16 11 11 12 13 12 8 4 3 3 4 6 7 9 10 11 13 14 15 17 19 19 21 24 25 26 27 26 25 26 26 26 27 27 25 24 25 25 25 25 25 25 25 25 25
1 1 3 3 3 4 4 4 4 4 3 4 4 4 5 6 5 6 6 6 6 6 5 5 5 5 6 6 6 7 6 7 8 8 8 8 6 7 9 10 12 15 13 12 16 14 14 15 11 8 6 5 6 8 9 12 13 13 15 16 16 16 18 21 25 29 29 26 25 25 25 26 26 24 24 24 25 25 25 23 22 23 25 24 24 24 23
2 3 6 4 3 4 3 3 3 3 4 6 5 5 6 6 6 6 6 4 4 4 5 5 5 5 6 6 6 7 6 7 8 8 7 9 8 8 11 11 12 11 8 16 17 13 13 15 11 8 8 6 8 9 11 15 17 17 17 17 17 16 18 20 24 28 29 25 24 26 26 26 26 23 22 22 23 25 27 26 24 24 24 24 25 25 24
1 2 3 2 4 4 4 3 2 3 4 5 5 5 5 5 5 4 4 3 3 4 5 5 5 5 6 6 7 8 7 6 7 7 10 12 10 10 12 11 11 7 14 19 16 12 13 14 12 10 9 8 9 10 12 15 18 18 17 17 17 19 21 21 19 20 23 26 28 30 29 27 27 24 22 22 23 24 26 28 28 27 26 25 26 26 26
1 3 3 1 1 1 4 4 4 5 5 5 6 6 5 5 5 3 3 4 5 4 5 6 5 5 7 7 8 7 6 7 8 9 12 13 12 14 14 11 9 8 20 20 15 12 11 12 13 12 11 10 9 10 12 15 17 18 17 17 19 20 22 23 22 21 22 26 29 31 30 28 27 23 20 21 23 23 24 25 26 27 27 28 29 29 27
4 5 5 4 3 2 5 5 4 6 6 4 5 5 5 6 6 3 2 4 5 5 6 8 7 6 6 8 9 7 6 9 10 11 14 13 13 16 14 11 6 14 19 16 15 15 13 12 12 12 12 10 8 9 11 14 16 16 15 17 19 19 20 22 25 27 27 27 28 29 29 29 29 26 22 19 19 21 22 22 23 25 26 28 29 27 24
3 4 5 5 3 3 5 5 5 6 5 3 4 6 6 6 6 4 3 4 5 5 6 8 9 9 8 9 10 7 7 11 12 13 15 14 13 14 10 11 8 20 18 12 14 17 16 15 13 11 11 10 8 9 11 14 15 13 14 16 18 18 19 21 22 25 27 27 27 28 28 28 28 28 26 23 19 17 18 20 22 24 26 27 26 22 21
3 4 5 4 4 5 5 4 4 5 5 5 5 6 7 7 6 6 5 5 6 6 5 6 10 12 10 11 11 8 8 11 13 14 14 13 14 13 10 8 12 23 18 12 15 17 17 17 14 12 11 9 9 10 10 12 14 13 14 16 18 19 22 22 21 23 25 26 28 29 30 29 29 30 29 27 25 23 20 20 21 24 25 25 23 21 21
3 3 2 1 1 2 2 3 4 5 6 7 6 6 8 9 8 8 8 6 6 8 6 5 8 11 9 8 8 8 7 9 11 12 12 12 13 12 9 3 16 23 17 12 14 14 14 13 11 10 10 8 9 10 10 12 13 13 14 17 19 22 24 26 25 24 24 25 26 27 28 30 31 31 30 30 31 30 28 26 26 26 26 24 22 22 22
1 2 3 4 4 5 3 3 4 5 6 7 5 5 8 10 9 9 8 7 7 8 8 7 8 9 8 8 7 6 7 8 9 10 11 11 11 10 6 4 15 20 17 12 11 10 10 9 9 9 10 7 8 10 11 12 13 13 16 19 19 20 23 27 29 28 26 25 25 25 26 28 31 33 33 32 31 31 30 29 29 28 27 25 23 21 20
4 4 3 2 3 5 5 4 4 4 5 6 6 6 8 9 8 6 5 6 7 7 7 8 8 8 7 8 7 6 7 9 9 9 11 11 10 8 5 6 13 17 15 11 8 8 8 7 8 11 10 7 7 9 10 13 14 15 17 20 20 19 21 24 28 30 29 27 26 26 27 28 30 33 33 32 31 30 30 31 30 28 26 24 23 21 21
3 3 2 1 3 3 3 4 5 5 5 6 8 8 8 6 5 4 4 4 5 5 6 7 9 9 7 7 8 7 7 8 9 9 11 11 9 6 6 9 11 13 11 8 6 8 9 8 8 10 10 7 8 10 12 14 15 17 20 20 20 20 20 21 23 26 27 26 25 27 28 29 30 30 31 31 31 31 31 30 30 28 27 26 26 25 24
3 3 4 4 4 3 5 5 4 5 5 5 6 7 5 4 4 4 4 4 4 4 5 7 9 9 8 8 9 9 8 9 10 10 11 10 8 6 7 9 9 8 8 8 8 10 10 9 8 7 7 6 7 12 15 15 16 19 21 20 19 20 20 21 22 24 24 24 25 26 27 27 28 28 30 30 31 31 30 29 29 29 28 28 29 28 26
4 4 4 4 4 4 5 5 4 4 5 5 5 5 4 4 4 4 4 5 4 5 6 7 7 8 10 10 11 12 11 10 9 9 10 10 8 7 7 8 7 6 8 10 11 11 10 10 9 7 5 4 6 12 15 16 16 18 19 19 19 20 22 24 26 26 26 26 27 27 26 26 25 26 28 30 30 30 30 29 28 28 27 27 27 27 26
5 5 5 5 4 5 5 4 4 5 5 5 5 5 4 4 4 4 4 5 5 6 6 6 6 9 11 12 12 12 11 10 8 8 9 11 11 9 8 8 7 7 8 10 10 9 9 10 10 9 6 5 6 11 14 15 16 18 19 21 24 26 27 28 27 27 27 27 27 26 28 28 26 25 27 30 30 30 30 29 27 27 27 27 26 26 24
3 4 5 4 4 4 4 4 4 5 5 4 5 5 5 5 4 4 4 5 6 6 6 6 9 11 11 11 11 10 9 9 7 6 8 11 12 12 10 7 7 8 8 8 8 7 6 7 8 7 6 7 8 12 15 15 17 21 24 27 29 30 30 29 27 26 27 27 26 27 29 29 26 24 26 29 31 30 29 28 26 26 27 27 27 25 22
2 3 4 4 3 2 3 4 4 4 4 4 5 5 5 5 5 6 6 6 5 6 7 9 11 12 11 9 9 8 8 6 4 4 7 9 11 12 10 6 5 7 6 5 6 6 5 6 7 6 7 7 8 12 14 13 16 24 30 32 31 29 27 27 28 28 28 28 28 29 29 28 25 24 25 28 30 29 27 26 26 25 26 25 24 22 20
0 1 3 2 0 1 3 3 4 4 4 4 4 4 4 6 6 6 6 6 6 7 10 11 12 11 9 7 7 7 7 5 4 5 7 7 8 9 8 5 3 4 4 5 6 7 7 8 7 6 6 6 7 11 12 11 15 23 28 31 32 31 28 27 29 30 31 30 31 31 30 27 27 26 26 26 27 27 26 25 25 25 24 22 20 20 21
4 3 2 3 3 4 5 5 5 4 3 3 3 4 5 7 7 7 6 7 9 11 12 12 12 10 7 6 7 7 6 5 5 6 6 6 6 7 6 5 6 6 6 8 9 8 6 6 6 4 4 4 5 9 12 12 14 18 24 29 31 30 28 27 29 31 33 32 32 33 32 30 29 27 26 25 25 25 25 25 24 24 23 21 21 22 24
4 3 2 2 4 5 6 5 5 5 4 4 4 6 7 9 9 9 8 9 11 12 12 12 11 8 6 7 7 7 6 6 6 5 5 5 6 7 8 9 10 10 8 8 9 6 4 3 4 3 3 3 2 6 11 14 14 18 25 27 26 25 27 28 30 32 33 32 32 33 32 31 28 26 24 24 25 25 24 24 24 24 23 23 24 26 26
5 5 4 3 4 4 5 7 9 9 8 7 7 9 10 10 10 10 10 10 11 11 10 10 9 7 7 8 8 8 7 6 6 6 7 8 9 11 12 13 13 11 9 7 6 5 4 3 2 2 5 4 2 4 10 14 16 19 24 25 23 25 29 32 32 32 32 32 32 32 30 30 29 27 24 24 25 24 24 24 25 24 24 25 27 28 26
5 6 5 4 5 6 7 9 10 11 10 8 7 8 10 10 10 10 10 10 10 10 9 8 7 7 8 9 8 8 8 8 8 8 9 10 11 13 16 16 14 11 9 8 10 10 9 6 5 7 9 8 6 6 8 12 14 17 21 23 24 26 28 30 30 32 32 32 31 31 31 32 31 28 25 24 24 24 24 25 25 25 25 26 27 27 25
3 4 5 6 7 7 7 7 9 10 11 10 9 8 9 10 10 10 10 10 10 9 7 6 7 8 9 9 9 10 11 11 12 11 11 12 13 14 15 17 17 15 13 14 15 16 15 13 13 13 13 12 11 11 12 13 16 19 21 23 23 24 26 29 31 32 33 32 30 30 31 32 31 28 27 27 26 24 24 25 26 25 25 25 26 26 25
4 6 7 7 8 7 7 7 8 9 11 11 10 10 10 10 9 8 8 8 8 9 10 11 11 10 10 11 12 13 13 14 16 16 15 15 14 13 12 14 17 19 20 21 21 20 20 21 21 22 21 20 19 18 20 22 25 27 29 30 29 28 28 31 33 33 34 34 32 30 30 31 30 28 27 26 26 25 25 25 25 26 25 24 24 24 25
7 8 8 7 7 7 7 8 8 8 10 10 11 11 12 11 9 9 9 9 11 14 15 15 14 13 12 13 14 15 15 16 18 19 20 18 16 13 12 13 17 20 23 25 26 26 26 26 26 26 27 27 28 29 31 33 34 33 33 35 37 36 34 35 36 36 35 35 33 31 30 29 29 27 25 23 23 24 24 25 25 25 25 23 22 22 22
9 9 8 7 7 8 9 9 8 7 9 11 12 12 12 11 12 11 12 12 13 14 14 14 15 14 14 15 16 15 15 15 16 18 20 21 21 19 16 15 17 21 24 27 29 29 29 28 28 28 28 29 31 33 35 36 37 37 37 38 39 39 36 33 33 34 34 33 32 30 29 28 26 25 24 23 23 25 26 26 25 25 23 22 21 20 19
10 9 8 8 8 8 8 8 7 8 9 10 12 12 13 13 13 13 13 14 14 14 14 14 14 14 14 16 16 15 14 15 15 15 16 18 20 21 20 20 20 22 25 28 29 29 29 29 29 29 30 31 33 34 34 34 35 37 38 38 37 36 33 30 30 30 30 30 29 28 28 26 25 25 26 25 25 25 26 25 24 23 22 21 19 18 16
10 9 9 9 8 7 7 7 8 9 9 11 13 14 13 14 14 14 14 15 15 14 14 15 15 14 15 16 17 17 17 17 17 15 14 12 11 14 18 21 23 24 26 28 28 28 28 27 27 28 29 30 31 32 33 33 33 34 35 36 35 33 31 30 29 28 27 26 26 26 26 26 25 26 26 25 24 24 24 23 23 22 20 19 18 15 14
10 10 10 9 8 7 7 9 10 11 11 12 13 13 13 14 14 14 14 15 15 14 14 15 16 15 15 15 16 17 19 20 19 17 15 13 12 14 18 22 23 24 25 26 26 26 25 25 26 27 28 28 29 29 29 29 30 30 30 31 31 30 29 28 27 26 26 25 25 26 26 25 25 25 24 23 23 23 22 21 20 19 17 16 15 13 12
11 11 10 10 9 10 11 12 12 11 10 10 9 9 11 13 14 14 14 14 14 14 14 15 16 16 16 16 16 16 17 18 18 17 17 17 18 19 20 22 22 23 23 23 23 23 22 22 23 24 24 25 26 26 26 26 26 26 26 26 26 26 26 26 25 25 25 25 26 27 26 26 25 24 23 22 22 21 20 18 17 16 15 13 12 11 11
13 12 11 11 11 11 11 12 11 9 8 9 9 9 11 12 12 13 13 13 13 14 14 15 15 15 15 16 17 17 16 16 14 14 15 18 19 20 21 22 22 23 23 23 23 22 21 20 20 21 21 22 23 23 22 22 22 21 21 21 21 22 23 23 24 25 26 25 25 25 25 24 23 23 22 21 19 18 17 16 15 14 12 11 11 11 12
14 13 13 13 12 11 11 11 9 8 9 10 11 11 12 12 11 10 11 11 11 11 11 12 13 14 14 15 15 16 16 15 14 13 14 15 16 16 17 18 18 19 20 21 21 21 20 19 18 18 19 19 20 20 20 20 20 20 20 21 21 21 21 22 23 24 25 24 23 22 21 21 21 20 19 18 17 16 15 14 14 13 12 12 12 13 13
14 14 13 13 13 12 11 11 10 11 12 12 11 10 10 10 9 7 7 7 8 8 9 9 9 10 11 12 12 12 12 12 13 13 13 13 13 12 12 12 12 13 14 15 16 16 16 16 17 17 18 19 19 20 20 20 20 21 21 21 20 20 19 19 20 21 21 20 20 20 20 20 19 18 17 16 15 14 14 14 14 14 13 13 12 11 10
14 14 13 14 14 13 12 12 13 14 13 13 11 10 9 8 7 4 4 5 5 6 7 8 8 8 9 10 10 10 10 11 11 12 12 12 12 13 14 14 14 14 14 13 12 12 12 13 15 16 18 19 20 20 21 21 21 20 20 20 19 19 18 19 20 20 19 19 19 19 18 17 16 15 14 14 14 13 13 14 13 12 10 9 8 7 6
14 14 14 14 13 13 12 12 12 13 13 12 12 10 8 7 7 4 3 3 4 5 6 7 7 8 9 11 11 12 12 12 11 11 12 11 11 12 13 14 15 16 17 17 16 15 14 15 16 16 17 17 17 16 16 17 18 18 18 17 17 16 17 17 17 18 17 16 17 17 16 16 15 15 14 14 14 13 12 11 9 8 7 6 5 5 4
Wind_Direction
262 239 250 279 293 43 52 39 33 41 52 65 74 75 88 106 117 221 249 185 135 224 280 321 318 320 322 287 279 298 299 300 318 330 334 333 327 324 325 325 326 327 305 288 288 291 289 287 228 201 218 233 238 235 233 227 226 224 220 220 223 217 209 210 214 214 214 213 212 212 210 206 202 193 193 205 212 212 212 208 202 198 193 190 190 186 182
314 308 302 317 356 67 63 38 28 44 57 64 73 71 61 96 142 203 189 125 144 237 286 303 303 314 310 286 299 320 315 309 320 329 331 330 325 322 321 320 321 323 310 281 280 285 278 265 229 199 207 210 211 222 237 243 243 241 232 227 231 227 214 210 214 213 207 200 197 196 189 186 189 190 196 205 208 203 196 187 185 189 190 187 190 195 194
323 309 319 353 66 89 71 42 26 35 50 52 53 36 30 75 156 302 38 89 196 279 294 292 297 319 332 328 326 323 306 293 308 327 328 325 323 318 317 319 320 323 324 317 308 292 270 255 233 208 202 194 189 193 203 226 247 253 246 239 243 242 226 215 216 209 182 166 166 168 173 182 186 189 194 197 194 190 185 181 182 190 197 196 194 197 196
303 296 325 353 88 96 69 41 16 16 41 44 31 14 17 56 308 344 22 40 269 277 297 307 313 329 338 326 314 310 305 299 307 324 325 320 316 314 314 316 320 323 324 324 325 314 277 254 244 226 204 188 181 179 181 201 225 231 234 244 255 258 247 227 209 164 131 136 148 161 186 200 196 191 192 191 189 190 189 188 189 193 197 196 190 190 190
284 281 311 333 60 82 45 351 331 1 31 17 7 9 354 352 106 109 146 231 245 263 307 328 328 327 323 315 312 310 308 307 311 317 319 315 310 305 303 308 316 322 321 319 318 316 291 260 254 255 239 216 201 186 181 190 198 200 204 215 242 266 269 231 142 120 123 141 161 191 207 205 198 196 198 199 200 199 194 190 189 189 190 188 185 186 186
266 281 319 11 18 320 259 263 317 72 85 83 184 218 280 309 14 120 171 240 280 304 323 323 316 313 310 310 309 302 303 316 325 318 312 312 312 299 292 303 318 322 318 316 314 312 307 289 274 275 282 282 276 247 197 186 189 195 199 195 186 197 212 120 117 124 151 169 188 211 206 190 191 202 207 208 206 200 193 188 187 187 186 184 182 182 185
239 301 21 37 306 242 223 246 11 76 97 120 162 222 245 243 7 43 54 337 318 316 311 302 301 306 309 310 301 294 325 2 345 322 312 314 314 297 294 312 327 324 318 318 315 312 312 316 310 298 303 302 294 289 250 201 195 199 202 196 181 164 146 138 149 176 200 200 204 210 197 182 190 201 204 205 199 191 189 189 188 189 187 185 183 181 183
272 14 37 42 239 243 266 311 357 55 48 51 74 301 279 236 172 124 109 293 295 302 305 301 302 306 314 318 293 270 344 6 346 324 311 310 309 292 292 310 320 323 318 311 310 309 312 325 333 331 335 333 321 317 306 254 221 213 201 185 178 168 163 171 183 188 195 199 201 202 194 183 183 188 192 196 194 189 189 188 187 188 187 184 180 176 175
171 153 334 57 208 283 310 313 305 116 115 188 140 252 277 247 195 174 176 294 296 306 310 300 300 315 333 338 303 282 316 330 322 312 302 304 303 290 292 307 319 326 321 309 311 318 319 325 336 345 349 349 347 341 323 293 266 247 217 188 182 178 169 169 176 182 186 189 195 201 195 181 176 181 187 193 195 194 191 187 186 186 182 177 175 171 169
127 114 38 29 211 249 246 254 258 222 203 211 182 191 274 278 268 251 173 294 291 299 303 295 306 341 353 333 304 294 305 310 308 310 307 309 309 300 301 311 323 328 322 316 321 326 322 323 335 348 353 354 355 353 315 276 262 249 229 205 196 188 170 167 176 184 188 192 201 207 198 184 181 183 186 192 197 198 194 187 182 179 175 172 173 171 168
71 112 169 215 212 236 237 240 254 249 224 209 118 52 291 273 269 272 271 290 286 285 283 289 326 6 343 315 296 295 305 306 302 306 306 313 323 314 308 311 318 317 318 323 329 327 322 330 345 354 355 354 354 355 299 242 242 238 225 206 184 143 131 155 173 183 191 199 207 208 201 196 192 186 186 192 195 195 193 186 177 172 169 166 167 169 168
251 138 176 231 218 236 239 233 242 251 230 110 68 5 280 251 252 264 267 288 289 278 272 290 331 340 294 287 289 294 301 297 291 293 297 310 332 309 303 309 311 298 308 322 328 326 324 332 347 356 355 354 352 347 332 244 231 233 221 170 116 108 119 138 157 174 191 201 207 206 199 202 215 205 192 192 192 189 186 180 168 159 155 153 156 161 162
195 141 157 255 252 236 233 231 243 253 51 64 60 260 243 233 255 263 257 281 286 274 272 285 274 249 250 259 276 287 292 292 291 293 295 307 331 305 302 311 310 288 286 304 311 320 331 340 349 356 360 358 352 343 329 295 258 243 216 184 178 181 169 158 165 176 188 195 196 191 191 200 211 218 209 198 190 183 175 163 147 139 140 145 148 148 145
161 139 134 334 284 241 204 208 259 307 68 89 238 232 222 224 261 276 277 283 278 264 265 263 250 256 266 270 277 284 289 288 287 293 301 314 337 333 321 320 313 297 293 301 308 326 350 5 3 359 4 5 355 344 331 312 297 259 198 201 210 210 192 175 174 177 180 186 188 187 196 205 203 199 198 192 179 167 154 140 133 133 139 142 141 136 132
83 55 72 44 276 239 194 180 309 355 143 209 224 240 256 246 256 276 283 281 272 263 267 267 262 271 279 283 286 286 289 289 285 295 306 313 340 341 332 324 318 308 296 293 300 324 351 13 22 10 7 20 6 342 322 300 267 201 186 192 192 186 179 175 168 165 173 184 188 190 199 203 188 168 165 170 164 149 133 130 135 142 144 139 135 133 129
128 101 204 212 219 223 194 162 182 223 215 202 182 181 259 266 255 252 261 272 268 257 261 272 278 280 280 288 295 293 296 300 296 299 306 318 353 341 325 321 324 321 316 316 317 321 330 347 43 209 243 179 149 216 244 224 203 195 187 181 173 168 170 168 159 156 166 178 183 186 190 187 167 151 158 171 166 152 145 145 145 145 143 140 137 133 128
169 177 213 219 212 230 219 175 184 214 230 222 185 180 224 259 250 232 238 266 274 271 273 278 278 279 281 290 300 303 304 305 302 302 311 333 4 328 311 313 323 326 333 344 331 285 277 268 239 236 247 217 196 219 208 182 179 186 180 173 169 167 167 163 155 155 163 176 184 183 176 166 155 156 167 169 159 155 159 158 150 144 143 143 139 135 131
180 174 218 199 186 277 268 217 206 213 222 231 213 197 225 246 247 241 241 259 273 276 281 280 273 278 289 294 301 307 311 310 307 305 314 332 352 316 308 314 326 339 352 341 300 283 280 279 286 302 272 215 218 230 203 176 177 183 176 170 166 166 164 156 151 154 164 176 182 176 164 158 159 169 174 163 153 159 165 160 152 146 145 144 141 138 136
110 285 263 198 191 250 252 223 235 256 264 255 230 209 231 245 249 254 252 256 266 270 276 280 277 286 297 301 306 312 315 311 306 304 313 324 331 331 328 332 349 3 355 301 278 277 283 290 302 312 293 243 200 192 185 182 184 184 180 174 168 163 158 153 153 158 164 170 168 160 154 153 157 169 173 161 155 159 161 157 152 146 144 147 146 142 137
161 233 247 239 243 261 242 194 212 251 272 273 256 236 243 248 250 257 256 254 265 279 288 287 287 298 304 304 305 307 307 306 305 304 305 309 320 335 333 342 12 20 309 269 265 266 272 280 286 284 276 245 199 187 188 187 184 179 177 173 168 163 156 153 157 161 161 158 152 146 146 146 148 156 165 164 162 163 162 160 156 152 151 153 151 147 143
316 252 252 304 338 330 327 334 306 254 254 278 294 286 269 261 265 280 294 294 291 296 294 289 293 301 299 296 298 300 300 300 300 301 303 308 321 328 328 356 32 2 282 269 268 271 277 281 278 267 258 238 217 209 203 194 186 181 176 169 163 160 156 154 156 157 155 154 151 147 146 144 141 144 153 161 164 164 164 164 162 160 158 156 155 153 150
276 242 226 211 143 268 283 295 302 296 296 318 329 321 311 304 298 299 313 318 324 325 303 291 289 290 288 288 289 290 291 289 290 297 303 311 322 322 328 15 39 306 280 280 286 294 304 305 293 280 271 260 245 233 218 201 188 183 177 166 159 158 156 153 152 151 150 150 149 149 148 145 140 138 143 155 161 162 162 164 165 166 164 162 162 161 154
212 218 210 181 151 208 254 261 287 303 312 331 327 309 303 303 294 278 301 324 326 317 296 286 277 269 274 283 286 286 286 288 294 302 305 310 314 314 333 27 17 282 277 286 298 304 314 316 305 291 281 269 259 251 232 210 195 186 177 166 161 159 156 154 153 153 151 150 148 148 148 146 143 139 134 138 149 158 160 162 165 168 168 166 165 164 157
187 213 201 175 160 217 249 261 282 293 302 325 318 306 307 306 291 274 291 309 295 277 278 282 280 275 272 279 285 285 283 290 299 303 305 310 310 312 351 37 327 284 282 293 299 299 304 306 304 296 282 261 248 256 247 225 213 202 184 171 165 160 158 157 156 153 152 151 149 147 144 142 141 138 131 123 120 131 149 161 166 167 165 162 160 159 156
165 219 212 188 193 224 247 278 292 292 305 322 320 313 314 310 296 288 294 298 291 288 286 285 293 300 298 292 294 294 290 300 311 312 310 314 315 326 19 39 295 283 288 302 304 300 296 295 298 297 284 258 239 248 250 235 225 213 192 180 172 164 160 158 155 154 153 152 152 149 146 143 140 138 134 127 116 109 116 132 144 150 152 153 151 148 145
174 223 248 17 332 278 307 335 318 306 318 326 326 320 318 319 320 319 318 316 316 318 320 313 315 325 332 326 322 322 319 321 328 329 325 322 324 346 33 7 285 287 293 300 303 299 294 299 306 301 290 272 247 242 242 236 227 214 199 189 178 170 165 160 155 154 153 153 153 150 147 145 141 137 135 133 126 119 114 114 118 124 131 136 140 139 137
69 33 45 35 353 323 319 311 291 295 322 335 336 323 321 327 336 339 340 350 355 351 353 356 350 347 349 349 347 345 336 329 328 331 332 330 334 356 28 298 286 293 297 298 301 300 302 316 320 305 297 286 252 235 234 235 229 213 200 190 179 172 169 163 157 154 154 154 152 147 144 142 139 136 134 132 130 128 125 121 119 120 123 129 133 135 135
32 33 69 97 270 273 272 282 296 316 334 339 333 321 318 326 337 347 352 355 354 349 351 356 352 340 331 334 337 335 329 324 320 323 330 333 336 346 346 303 290 293 297 303 303 299 306 313 304 301 305 292 244 223 225 231 226 209 195 185 177 173 170 164 158 154 153 153 150 146 143 139 135 134 134 133 131 130 129 128 127 126 126 129 130 130 131
20 11 28 321 269 278 307 326 339 343 336 334 334 327 321 325 340 345 334 331 336 334 330 335 335 326 318 323 326 320 314 313 313 316 324 330 335 332 319 311 303 298 305 314 304 299 309 306 294 303 313 290 234 213 215 223 219 205 192 183 176 174 171 164 157 151 148 147 146 143 139 136 134 133 133 132 132 131 130 129 129 129 129 130 129 128 128
340 353 356 332 332 6 2 339 330 324 318 323 327 321 317 329 339 325 313 315 327 325 313 314 320 319 315 315 316 313 308 307 310 316 322 327 329 320 310 315 315 308 311 315 307 304 308 300 291 311 328 302 237 215 212 212 208 200 192 183 176 173 170 163 155 148 143 142 141 138 135 134 135 135 133 132 131 131 130 130 130 131 132 133 133 132 130
348 344 339 328 336 356 344 324 316 315 311 310 312 310 315 327 324 312 310 313 312 310 310 314 316 312 308 310 315 319 319 316 319 332 339 337 332 319 307 311 317 311 307 309 310 310 309 300 288 293 312 301 244 223 216 208 199 193 186 179 175 174 172 168 160 153 149 145 142 138 136 136 138 138 135 133 132 131 131 132 132 133 135 136 137 135 133
12 345 337 334 335 339 330 314 310 313 308 308 312 310 302 300 299 300 305 307 306 309 313 315 311 308 311 315 320 327 334 337 341 355 358 352 345 334 316 303 297 292 296 305 310 310 311 306 294 281 274 272 249 229 219 209 195 182 176 176 178 178 176 171 164 157 152 147 143 142 141 141 143 144 140 136 135 134 134 134 135 137 139 140 140 139 136
15 335 323 316 320 329 320 302 296 298 295 298 303 296 287 290 294 295 299 305 312 316 316 314 314 316 319 321 324 337 356 1 357 3 8 360 348 338 328 311 289 282 290 308 321 322 318 316 309 293 279 272 251 231 224 216 197 181 178 181 181 178 175 171 164 156 149 146 145 146 146 146 148 148 143 138 136 136 136 136 138 140 141 142 143 144 143
224 255 261 254 253 282 289 287 292 290 286 295 299 292 296 309 315 316 321 324 320 314 314 317 319 323 327 329 335 356 14 14 1 3 11 1 342 332 332 325 293 282 290 318 338 338 323 312 308 300 290 279 248 228 227 221 198 185 183 182 180 175 169 166 161 153 148 147 149 149 148 148 147 145 142 139 138 137 138 139 141 143 144 146 149 150 149
184 300 294 285 327 313 286 280 288 288 285 296 302 306 320 328 329 332 339 342 333 325 326 328 328 331 340 353 8 16 11 4 12 19 12 357 337 328 331 333 318 317 344 6 3 352 333 317 310 299 288 277 241 223 222 214 195 186 180 178 178 176 169 163 158 153 150 152 152 149 146 145 144 144 144 142 140 140 141 142 144 148 148 149 152 154 153
46 39 7 13 8 339 317 310 309 308 305 305 310 327 340 339 335 336 345 355 355 349 344 341 339 341 357 22 33 24 9 14 36 33 9 350 342 343 349 357 355 358 9 13 11 8 353 333 329 313 282 268 235 214 209 203 190 179 173 174 176 174 166 157 152 151 153 154 151 146 146 146 145 147 149 146 142 143 144 145 147 149 147 145 147 151 153
36 55 73 42 7 346 338 346 359 8 14 11 7 6 2 355 353 360 10 13 9 3 355 349 347 356 26 43 44 42 43 50 53 41 20 11 11 14 17 15 10 10 10 6 6 17 25 353 335 307 251 244 226 202 201 199 189 178 176 177 172 160 152 149 147 149 152 151 145 143 145 145 143 144 146 144 143 145 147 148 149 148 144 142 145 149 152
27 50 76 61 25 21 30 38 42 42 38 32 26 20 13 9 11 17 19 13 5 359 355 355 1 22 45 50 53 59 61 59 53 42 36 35 37 37 33 26 20 19 18 14 19 44 58 33 13 126 140 135 130 176 190 194 189 180 177 175 162 147 146 149 148 146 146 143 140 141 141 139 138 140 142 141 142 145 148 150 150 146 143 143 145 148 150
43 62 79 72 60 66 67 59 51 46 40 34 25 19 17 14 11 9 6 1 357 354 353 0 23 46 55 59 62 59 52 49 50 46 42 43 49 50 45 38 34 36 43 55 65 71 73 73 87 106 112 116 120 133 155 171 172 165 161 158 151 144 144 143 140 137 136 135 135 137 136 135 136 137 137 138 141 143 145 149 150 149 147 146 147 149 149
69 83 86 77 74 78 77 64 52 44 40 36 29 22 18 12 5 360 354 349 350 356 5 30 55 61 63 65 62 53 50 53 54 53 54 56 57 56 50 42 40 49 64 72 74 74 76 79 83 84 86 94 106 113 119 129 134 132 131 130 128 128 130 129 126 125 126 127 127 129 129 129 131 133 135 139 141 142 144 147 149 150 151 151 151 153 153
102 104 98 88 85 86 80 70 57 48 43 39 34 30 25 17 9 2 355 355 12 35 54 69 73 67 64 67 64 58 57 59 59 60 63 61 59 59 54 43 43 55 70 77 79 79 79 79 79 79 79 82 91 99 105 109 111 111 111 111 109 107 109 112 113 114 117 119 120 121 123 126 129 133 138 143 144 145 147 149 148 146 147 148 151 156 158
111 112 105 97 93 89 81 74 66 54 46 42 39 38 35 31 31 33 32 40 57 66 69 73 75 71 68 69 67 61 58 59 62 64 65 63 61 63 61 51 52 63 74 78 80 80 80 79 80 82 84 86 90 94 97 99 99 98 99 102 102 100 98 100 104 108 112 115 117 121 127 131 134 138 142 147 150 152 153 152 149 146 144 143 144 149 154
124 123 115 109 104 93 85 83 76 62 52 48 47 48 48 49 52 56 58 61 66 70 70 71 73 73 72 72 68 61 55 55 61 66 68 67 67 68 67 64 64 70 77 80 80 80 80 81 82 85 88 90 93 95 96 96 97 98 98 98 99 100 100 101 105 111 115 116 118 122 128 133 137 141 146 152 156 157 155 153 150 148 146 143 141 141 142
130 130 123 117 110 103 100 98 86 70 60 57 57 60 62 63 63 65 66 66 64 64 65 66 66 66 70 73 71 63 56 54 59 66 72 72 68 66 69 73 74 75 78 82 82 82 83 86 88 90 92 92 93 94 94 95 97 99 100 101 102 104 106 107 109 115 120 122 124 128 134 140 144 146 149 152 154 152 150 149 147 146 146 145 142 139 137
129 129 125 121 115 111 111 105 94 84 76 71 67 65 66 67 68 70 72 72 71 69 70 71 68 64 66 72 76 76 74 71 67 65 67 66 59 58 67 76 79 79 80 82 84 84 86 89 92 94 94 94 94 94 95 96 98 101 103 106 109 113 115 117 119 123 127 130 133 135 138 140 141 143 145 148 150 149 147 146 146 145 144 142 139 138 138
127 125 124 121 114 109 108 107 105 100 90 79 70 65 67 72 75 74 75 78 80 79 78 78 76 74 75 79 81 82 83 82 77 71 68 69 69 70 75 81 84 84 83 83 83 83 86 89 92 94 95 96 96 96 98 101 103 105 107 111 116 120 124 127 130 132 134 135 135 135 133 132 132 134 136 138 140 140 139 139 138 137 136 135 134 135 140
132 131 131 127 117 110 110 113 112 104 93 83 76 74 78 82 84 83 84 87 87 86 85 85 85 86 87 89 87 85 85 84 80 74 73 76 79 80 81 83 83 83 82 82 83 84 85 87 89 91 94 97 97 97 98 100 104 106 108 111 115 119 124 128 132 134 136 135 133 132 132 132 133 133 132 131 130 130 129 128 127 127 128 129 130 132 136
140 140 141 137 129 122 118 117 115 108 101 102 104 99 93 91 90 90 91 92 92 91 91 92 91 92 93 95 95 96 96 91 83 76 78 83 84 83 83 84 84 84 84 83 83 84 84 85 87 90 93 96 98 100 101 103 106 110 114 118 121 123 126 128 129 129 128 127 125 123 123 124 125 126 127 127 126 126 125 125 126 128 129 129 130 132 136
152 152 149 143 138 137 133 126 121 118 120 122 120 114 108 106 105 102 99 98 95 94 97 101 103 102 100 100 101 101 100 97 94 95 96 95 91 87 85 84 84 85 85 85 84 84 84 86 90 94 95 97 100 103 104 106 108 111 113 117 119 120 119 120 120 120 120 119 117 115 113 113 113 116 117 118 118 121 123 124 126 130 133 132 131 134 135
151 154 154 152 151 153 152 146 141 141 141 138 135 133 130 130 129 119 106 101 99 93 92 100 110 112 109 108 107 105 101 99 100 103 104 100 93 86 80 77 79 84 85 86 87 88 87 88 92 98 102 104 104 102 100 101 103 104 104 105 107 108 109 111 113 115 118 118 117 113 111 111 111 111 111 111 112 115 118 118 120 124 128 128 128 130 131
151 154 159 161 164 167 167 161 156 155 153 149 147 147 146 146 147 132 99 96 106 105 98 102 112 115 112 110 108 106 103 102 102 104 104 100 94 89 85 83 85 86 84 83 86 90 90 89 91 95 97 97 97 97 99 100 101 101 102 104 107 110 113 114 114 115 116 117 116 114 112 111 111 111 112 115 118 118 117 117 118 119 121 122 121 120 119
154 155 155 158 162 166 167 165 166 169 169 167 167 167 161 153 153 149 113 106 126 129 118 113 118 122 121 120 119 117 115 112 108 107 105 102 98 96 92 88 88 89 90 90 91 92 95 98 100 98 96 96 96 96 98 102 104 105 106 108 108 109 113 116 117 116 117 118 119 119 118 117 116 115 115 118 121 121 119 120 120 118 116 116 116 117 121